This demonstration page uses our WeatherBlox Daily Observations layout. Learn more.

Left ArrowRight Arrow

Hourly Observations for March 21, 2020

Temp ( °F °C ) Dew Point ( °F °C ) Humidity (%) Winds ( mph kmh ) Pressure ( in mb ) Visibility ( mi km ) Precip ( " mm )
12:26 am 00:26 Cloudy 38 3.3 29 -1.7 70 70 N 13 20 30.41 1030 10 16.0934 N/A
12:53 am 00:53 Cloudy 37 2.8 28 -2.2 70 70 N 10 17 30.41 1030 10 16.0934 N/A
1:15 am 01:15 Cloudy 36 2.2 29 -1.7 76 76 NNW 9 15 30.44 1031 10 16.0934 N/A
1:53 am 01:53 Cloudy 36 2.2 28 -2.2 73 73 NNW 12 19 30.39 1029 10 16.0934 N/A
2:53 am 02:53 Cloudy 36 2.2 29 -1.7 76 76 N 13 20 30.4 1029 10 16.0934 N/A
3:53 am 03:53 Cloudy 35 1.7 27 -2.8 72 72 N 8 13 30.4 1029 10 16.0934 N/A
4:53 am 04:53 Cloudy 34 1.1 26 -3.3 73 73 N 8 13 30.4 1030 10 16.0934 N/A
5:53 am 05:53 Cloudy 34 1.1 25 -3.9 70 70 N 10 17 30.43 1031 10 16.0934 N/A
6:53 am 06:53 Cloudy 34 1.1 25 -3.9 70 70 N 9 15 30.45 1031 10 16.0934 N/A
7:53 am 07:53 Cloudy 34 1.1 25 -3.9 70 70 N 10 17 30.46 1032 10 16.0934 N/A
8:26 am 08:26 Cloudy 33 0.6 25 -3.9 72 72 NNE 12 19 30.49 1033 10 16.0934 N/A
8:38 am 08:38 Cloudy 34 1.1 25 -3.9 70 70 NNE 12 19 30.49 1033 10 16.0934 N/A
8:53 am 08:53 Cloudy 34 1.1 25 -3.9 70 70 NNE 13 20 30.48 1032 10 16.0934 N/A
9:53 am 09:53 Cloudy 34 1.1 25 -3.9 70 70 NNE 10 17 30.49 1033 10 16.0934 N/A
10:53 am 10:53 Cloudy 35 1.7 25 -3.9 67 67 NE 10 17 30.5 1033 10 16.0934 N/A
11:19 am 11:19 Cloudy 35 1.7 26 -3.3 70 70 NNE 10 17 30.52 1034 10 16.0934 N/A
11:53 am 11:53 Cloudy 36 2.2 26 -3.3 67 67 NNE 10 17 30.51 1033 10 16.0934 N/A
12:53 pm 12:53 Cloudy 37 2.8 25 -3.9 62 62 NE 7 11 30.53 1034 10 16.0934 N/A
1:20 pm 13:20 Cloudy 37 2.8 25 -3.9 62 62 ENE 6 9 30.54 1034 10 16.0934 N/A
1:53 pm 13:53 Cloudy 37 2.8 26 -3.3 65 65 NE 7 11 30.51 1033 10 16.0934 N/A
2:53 pm 14:53 Cloudy 37 2.8 26 -3.3 65 65 NE 9 15 30.51 1033 10 16.0934 N/A
3:29 pm 15:29 Cloudy 37 2.8 26 -3.3 65 65 NE 8 13 30.51 1033 10 16.0934 N/A
3:53 pm 15:53 Cloudy 38 3.3 26 -3.3 62 62 N 6 9 30.49 1033 10 16.0934 N/A
4:53 pm 16:53 Cloudy 38 3.3 26 -3.3 62 62 N 7 11 30.51 1033 10 16.0934 N/A
5:53 pm 17:53 Cloudy 37 2.8 24 -4.4 59 59 N 9 15 30.52 1033 10 16.0934 N/A
6:53 pm 18:53 Cloudy 36 2.2 25 -3.9 64 64 N 9 15 30.52 1034 10 16.0934 N/A
7:53 pm 19:53 Cloudy 35 1.7 25 -3.9 67 67 N 8 13 30.55 1034 10 16.0934 N/A
8:53 pm 20:53 Cloudy 35 1.7 24 -4.4 64 64 NNE 7 11 30.55 1034 10 16.0934 N/A
9:53 pm 21:53 Cloudy 34 1.1 25 -3.9 70 70 NNE 10 17 30.56 1035 10 16.0934 N/A
10:53 pm 22:53 Cloudy 34 1.1 25 -3.9 70 70 NNE 9 15 30.56 1035 10 16.0934 N/A
11:53 pm 23:53 Cloudy 33 0.6 25 -3.9 72 72 ENE 8 13 30.54 1034 10 16.0934 N/A

Powered by AerisWeather